McComb, MS

3:23 PM CDT on April 24, 2017 (GMT -0500)
McComb-Pike County-Lewis

Weather History for KMCB - November, 2011

Change the Weather History Date:

Thursday, November 10, 2011

  Actual Average Record
Temperature  
Mean Temperature 48 °F -  
Max Temperature 60 °F 69 °F 84 °F (2002)
Min Temperature 36 °F 45 °F 28 °F (1956)
Degree Days  
Heating Degree Days 16    
Moisture  
Dew Point 30 °F    
Average Humidity 49    
Maximum Humidity 82    
Minimum Humidity 22    
Precipitation  
Precipitation 0.00 in - - ()
Sea Level Pressure  
Sea Level Pressure 30.25 in    
Wind  
Wind Speed 10 mph (North)    
Max Wind Speed 17 mph    
Max Gust Speed 25 mph    
Visibility 10 miles    
Events      
Averages and records for this station are not official NWS values.
T = Trace of Precipitation, MM = Missing Value Source: NWS Daily Summary

Daily Weather History Graph

Daily Weather History Graph

Search for Another Location

Airport or City:

Trip Planner

Search our weather history database for the weather conditions in past years. The results will help you decide how hot, cold, wet, or windy it might be!

Date:

Astronomy

Nov. 10, 2011 Rise Set
Actual Time 6:24 AM CST 5:06 PM CST
Civil Twilight 5:59 AM CST 5:32 PM CST
Nautical Twilight 5:30 AM CST 6:01 PM CST
Astronomical Twilight 5:01 AM CST 6:29 PM CST
Moon 4:58 PM CST (11/10) 6:14 AM CST (11/10)
Length of Visible Light 11h 32m
Length of Day
10h 42m
Full, 100% of the Moon is Illuminated
Nov 10
Full
Nov 10
Full
Nov 18
Last Quarter
Nov 25
New
Dec 2
First Quarter

Hourly Weather History & Observations

Time (CST) Temp. Dew Point Humidity Pressure Visibility Wind Dir Wind Speed Gust Speed Precip Events Conditions
12:53 AM 50.0 °F 39.9 °F 68% 30.20 in - North 11.5 mph 23.0 mph N/A   Clear
1:53 AM 48.9 °F 37.0 °F 64% 30.21 in - North 11.5 mph - N/A   Clear
2:53 AM 48.9 °F 35.1 °F 59% 30.21 in - North 9.2 mph 17.3 mph N/A   Clear
3:53 AM 50.0 °F 35.1 °F 57% 30.21 in - North 8.1 mph - N/A   Clear
4:53 AM 48.9 °F 35.1 °F 59% 30.22 in - North 9.2 mph - N/A   Clear
7:53 AM 48.9 °F 36.0 °F 61% 30.29 in - North 9.2 mph - N/A   Clear
8:53 AM 52.0 °F 35.1 °F 53% 30.29 in - North 9.2 mph - N/A   Clear
9:53 AM 54.0 °F 32.0 °F 43% 30.28 in - North 12.7 mph 24.2 mph N/A   Clear
10:53 AM 55.0 °F 28.9 °F 37% 30.29 in - North 15.0 mph 21.9 mph N/A   Clear
11:53 AM 59.0 °F 24.1 °F 26% 30.26 in - North 13.8 mph 25.3 mph N/A   Clear
12:53 PM 59.0 °F 24.1 °F 26% 30.24 in - NNW 17.3 mph 24.2 mph N/A   Clear
1:53 PM 60.1 °F 24.1 °F 25% 30.22 in - North 17.3 mph 24.2 mph N/A   Clear
2:53 PM 60.1 °F 21.9 °F 23% 30.21 in 10.0 mi North 17.3 mph 25.3 mph N/A   Clear
3:53 PM 59.0 °F 19.9 °F 22% 30.21 in 10.0 mi NNW 17.3 mph 23.0 mph N/A   Unknown
4:53 PM 55.0 °F 25.0 °F 31% 30.22 in 10.0 mi NNW 10.4 mph - N/A   Clear
5:53 PM 50.0 °F 25.0 °F 38% 30.24 in 10.0 mi NNW 6.9 mph - N/A   Clear
6:53 PM 48.0 °F 27.0 °F 44% 30.26 in 10.0 mi NNW 8.1 mph - N/A   Clear
7:53 PM 46.9 °F 27.0 °F 46% 30.27 in 10.0 mi North 5.8 mph - N/A   Clear
8:53 PM 43.0 °F 28.9 °F 58% 30.28 in 10.0 mi Calm Calm - N/A   Clear
9:53 PM 37.9 °F 30.0 °F 73% 30.28 in 10.0 mi Calm Calm - N/A   Clear
10:53 PM 37.0 °F 30.9 °F 79% 30.27 in 10.0 mi Calm Calm - N/A   Clear
11:53 PM 36.0 °F 30.9 °F 82% 30.27 in 10.0 mi Calm Calm - N/A   Clear